Location: Devore Heights
(34.2372°N, 117.4156°W)
Time: 19:40:02
(UTC+00:00)

S-56A Canister/Altair - Pass Details

Date: 22 September 2024
Orbit: 636 x 2487 km, 38.9° (Epoch: 14 October)

Event Time Altitude Azimuth Distance (km) Brightness Sun altitude
Rises 01:58:14 0° 276° (W) 3,000 13.8 -3.2°
Reaches altitude 10° 02:00:23 10° 281° (W) 2,172 11.8 -3.6°
Maximum altitude 02:05:13 55° 359° (N) 1,009 8.2 -4.6°
Drops below altitude 10° 02:11:54 10° 77° (ENE) 2,982 9.9 -6.0°
Enters shadow 02:13:14 - 79° (E) 3,470 10.2 -6.3°
Sets 02:15:20 0° 81° (E) 4,243 - -6.7°
